User: anonymous   Login
Location: Zilina
(0.0000°N, 18.7333°E)
Time: 06:46:16
(UTC+02:00)
Language:

Cosmos 2298 Rocket - Orbit

View from above orbital plane
View from above orbital plane
View from above satellite
View from above satellite

Ground track
Ground track

The orbit data is extracted from the following two-line orbital elements,

1 23432U 94083B   19111.57201179  .00000006  00000-0  11763-4 0  9991
2 23432  74.0313 146.5583 0005775 204.0300 265.9766 14.33516474272795
Epoch (UTC): 21 April 2019 13:43:41
Eccentricity: 0.0005775
inclination: 74.0313°
perigee height: 776 km
apogee height: 784 km
right ascension of ascending node: 146.5583°
argument of perigee: 204.0300°
revolutions per day: 14.33516474
mean anomaly at epoch: 265.9766°
orbit number at epoch: 27279

The dashed part of the orbit path shows where the satellite is in the earth's shadow,  

DLR